Hourly Data Report for August 07, 2013

All times are specified in Local Standard Time (LST). Add 1 hour to adjust for Daylight Saving Time where and when it is observed.

VICTORIA INTL A
BRITISH COLUMBIA

48°38'50.000" N
123°25'33.000" W
19.50 m
1018621
71799
YYJ

Download Data

Hourly Data (August 2013)
Hourly Data Report for August 7, 2013
Temp Definition
°C
Dew Point Temp Definition
°C
Rel Hum Definition
%
Wind Dir Definition
10's deg

Wind Spd Definition
km/h
Visibility Definition
km
Stn Press Definition
kPa
Hmdx Definition


Wind Chill Definition


Weather Definition


TIME
00:00 Legend Double Dagger 13.3 10.9 85 9 5 48.3 101.19     LegendNANA
01:00 Legend Double Dagger 12.7 10.8 88 13 2 48.3 101.21     Clear
02:00 Legend Double Dagger 12.4 10.8 90 10 2 48.3 101.23     LegendNANA
03:00 Legend Double Dagger 12.1 10.9 92 13 6 48.3 101.25     LegendNANA
04:00 Legend Double Dagger 11.9 10.7 92 11 4 48.3 101.25     Clear
05:00 Legend Double Dagger 11.2 10.1 93 16 3 48.3 101.27     LegendNANA
06:00 Legend Double Dagger 12.7 11.0 89 10 5 48.3 101.30     LegendNANA
07:00 Legend Double Dagger 14.5 11.5 82 8 5 48.3 101.34     Mostly Cloudy
08:00 Legend Double Dagger 16.4 11.6 73 11 7 48.3 101.37     LegendNANA
09:00 Legend Double Dagger 16.7 11.5 71 12 12 48.3 101.38     LegendNANA
10:00 Legend Double Dagger 16.1 11.5 74 13 17 48.3 101.39     Mainly Clear
11:00 Legend Double Dagger 18.7 11.6 63 12 16 48.3 101.38     LegendNANA
12:00 Legend Double Dagger 19.8 12.2 61 12 17 48.3 101.36     LegendNANA
13:00 Legend Double Dagger 20.0 12.1 60 12 14 48.3 101.36     Mainly Clear
14:00 Legend Double Dagger 20.7 12.0 57 13 13 48.3 101.32     LegendNANA
15:00 Legend Double Dagger 22.0 12.1 53 12 11 48.3 101.27     LegendNANA
16:00 Legend Double Dagger 20.7 12.3 58 10 13 48.3 101.23     Mostly Cloudy
17:00 Legend Double Dagger 20.7 12.5 59 11 11 48.3 101.19     LegendNANA
18:00 Legend Double Dagger 19.5 12.4 63 8 8 48.3 101.16     LegendNANA
19:00 Legend Double Dagger 17.0 11.6 70 12 6 48.3 101.14     Clear
20:00 Legend Double Dagger 16.1 11.3 73 11 6 48.3 101.16     LegendNANA
21:00 Legend Double Dagger 15.1 11.1 77 12 6 48.3 101.19     LegendNANA
22:00 Legend Double Dagger 13.9 10.9 82 6 6 48.3 101.19     Clear
23:00 Legend Double Dagger 14.3 11.1 81 10 5 48.3 101.22     LegendNANA

Notes on Data Quality.

Legend

  • E = Estimated
  • M = Missing
  • NA = Not Available
  • ‡ = Partner data that is not subject to review by the National Climate Archives
Date modified: